When you browse on this site, cookies collect data to enhance your experience and personalize the content and advertising you see.
Visit our Privacy Policy to learn more. By continuing to use the site, you agree to this use of cookies and data.
  • In United Kingdom
  • List of Countries
  • For 7 days
  • Water Temperature
  • Weather Map
  • Weather Widgets
  • user-avatar
    Login

    Hourly Weather Zhmindino

    Today, 27 February, Thursday

    Time Temperature Precipitation Wind Pressure Humidity
    00:00 +2°C° 0 mm 2 mps 730 mmHg 85%
    01:00 +3°C° 0 mm 1 mps 730 mmHg 87%
    02:00 +2°C° 0 mm 1 mps 730 mmHg 90%
    03:00 +2°C° 0.2 mm 1 mps 729 mmHg 91%
    04:00 +1°C° 0.2 mm 0 mps 729 mmHg 93%
    05:00 +1°C° 0.2 mm 0 mps 729 mmHg 94%
    06:00 +2°C° 1.7 mm 1 mps 729 mmHg 96%
    07:00 +1°C° 1.7 mm 2 mps 729 mmHg 97%
    08:00 -1°C° 1.7 mm 3 mps 729 mmHg 98%
    09:00 -1°C° 0.8 mm 4 mps 729 mmHg 96%
    10:00 -1°C° 0.8 mm 4 mps 729 mmHg 94%
    11:00 -1°C° 0.8 mm 4 mps 729 mmHg 91%
    12:00 0°C° 0 mm 4 mps 730 mmHg 87%
    13:00 0°C° 0 mm 5 mps 730 mmHg 82%
    14:00 0°C° 0 mm 5 mps 730 mmHg 77%
    15:00 0°C° 0 mm 4 mps 730 mmHg 76%
    16:00 0°C° 0 mm 4 mps 730 mmHg 76%
    17:00 -1°C° 0 mm 4 mps 730 mmHg 76%
    18:00 -1°C° 0 mm 4 mps 731 mmHg 79%
    19:00 -2°C° 0 mm 4 mps 731 mmHg 83%
    20:00 -3°C° 0 mm 4 mps 731 mmHg 86%
    21:00 -3°C° 0 mm 4 mps 731 mmHg 86%
    22:00 -3°C° 0 mm 4 mps 731 mmHg 85%
    23:00 -3°C° 0 mm 4 mps 731 mmHg 85%

    Tomorrow, 28 February, Friday

    Time Temperature Precipitation Wind Pressure Humidity
    00:00 -3°C° 0 mm 4 mps 731 mmHg 84%
    01:00 -3°C° 0 mm 4 mps 731 mmHg 84%
    02:00 -3°C° 0 mm 4 mps 731 mmHg 83%
    03:00 -4°C° 0 mm 5 mps 731 mmHg 85%
    04:00 -4°C° 0 mm 5 mps 731 mmHg 86%
    05:00 -4°C° 0 mm 5 mps 732 mmHg 88%
    06:00 -4°C° 0.1 mm 5 mps 732 mmHg 88%
    07:00 -4°C° 0.1 mm 5 mps 732 mmHg 88%
    08:00 -4°C° 0.1 mm 6 mps 732 mmHg 88%
    09:00 -3°C° 0 mm 6 mps 733 mmHg 85%
    10:00 -3°C° 0 mm 6 mps 733 mmHg 83%
    11:00 -2°C° 0 mm 5 mps 733 mmHg 80%
    12:00 -3°C° 0 mm 6 mps 734 mmHg 79%
    13:00 -2°C° 0 mm 6 mps 734 mmHg 78%
    14:00 -2°C° 0 mm 6 mps 735 mmHg 77%
    15:00 -1°C° 0 mm 5 mps 735 mmHg 78%
    16:00 -2°C° 0 mm 4 mps 736 mmHg 78%
    17:00 -2°C° 0 mm 4 mps 736 mmHg 78%
    18:00 -1°C° 0.1 mm 3 mps 737 mmHg 82%
    19:00 -2°C° 0.1 mm 3 mps 737 mmHg 86%
    20:00 -2°C° 0.1 mm 3 mps 737 mmHg 90%
    21:00 -4°C° 0 mm 3 mps 738 mmHg 89%
    22:00 -4°C° 0 mm 4 mps 738 mmHg 87%
    23:00 -5°C° 0 mm 4 mps 739 mmHg 86%

    Day after tomorrow, 29 February, Saturday

    Time Temperature Precipitation Wind Pressure Humidity
    00:00 -5°C° 0 mm 3 mps 739 mmHg 86%
    01:00 -5°C° 0 mm 3 mps 739 mmHg 86%
    02:00 -5°C° 0 mm 3 mps 740 mmHg 87%
    03:00 -5°C° 0 mm 3 mps 740 mmHg 88%
    04:00 -5°C° 0 mm 3 mps 740 mmHg 90%
    05:00 -4°C° 0 mm 2 mps 740 mmHg 92%
    06:00 -5°C° 0 mm 3 mps 741 mmHg 91%
    07:00 -5°C° 0 mm 3 mps 741 mmHg 91%
    08:00 -4°C° 0 mm 3 mps 741 mmHg 91%
    09:00 -4°C° 0 mm 3 mps 741 mmHg 86%
    10:00 -2°C° 0 mm 3 mps 741 mmHg 81%
    11:00 -1°C° 0 mm 3 mps 742 mmHg 76%
    12:00 -1°C° 0 mm 3 mps 742 mmHg 74%
    13:00 0°C° 0 mm 3 mps 742 mmHg 72%
    14:00 0°C° 0 mm 3 mps 742 mmHg 71%
    15:00 +1°C° 0 mm 2 mps 742 mmHg 73%
    16:00 +1°C° 0 mm 2 mps 742 mmHg 76%
    17:00 +2°C° 0 mm 1 mps 742 mmHg 78%
    18:00 -1°C° 0 mm 2 mps 742 mmHg 81%
    19:00 -1°C° 0 mm 2 mps 743 mmHg 83%
    20:00 -2°C° 0 mm 3 mps 743 mmHg 86%
    21:00 -2°C° 0 mm 3 mps 743 mmHg 86%
    22:00 -2°C° 0 mm 3 mps 742 mmHg 86%
    23:00 -3°C° 0 mm 4 mps 742 mmHg 86%

    1 March, Sunday

    Time Temperature Precipitation Wind Pressure Humidity
    00:00 -3°C° 0 mm 4 mps 742 mmHg 85%
    01:00 -4°C° 0 mm 5 mps 742 mmHg 84%
    02:00 -4°C° 0 mm 5 mps 741 mmHg 83%
    03:00 -3°C° 0 mm 6 mps 741 mmHg 81%
    04:00 -3°C° 0 mm 6 mps 741 mmHg 78%
    05:00 -2°C° 0 mm 7 mps 740 mmHg 76%
    06:00 -2°C° 0 mm 7 mps 740 mmHg 75%
    07:00 -2°C° 0 mm 7 mps 739 mmHg 74%
    08:00 -2°C° 0 mm 7 mps 739 mmHg 72%
    09:00 -1°C° 0 mm 8 mps 739 mmHg 74%
    10:00 -1°C° 0 mm 8 mps 739 mmHg 76%
    11:00 -1°C° 0 mm 8 mps 739 mmHg 77%
    12:00 0°C° 0.1 mm 8 mps 738 mmHg 76%
    13:00 0°C° 0.1 mm 8 mps 738 mmHg 74%
    14:00 0°C° 0.1 mm 8 mps 738 mmHg 72%
    15:00 -1°C° 0.8 mm 7 mps 738 mmHg 80%
    16:00 -1°C° 0.8 mm 7 mps 737 mmHg 88%
    17:00 -2°C° 0.8 mm 7 mps 737 mmHg 96%
    18:00 -2°C° 0.8 mm 7 mps 737 mmHg 96%
    19:00 -2°C° 0.8 mm 6 mps 737 mmHg 96%
    20:00 -1°C° 0.8 mm 6 mps 737 mmHg 97%
    21:00 0°C° 0.2 mm 5 mps 737 mmHg 96%
    22:00 0°C° 0.2 mm 5 mps 737 mmHg 95%
    23:00 0°C° 0.2 mm 4 mps 737 mmHg 94%

    2 March, Monday

    Time Temperature Precipitation Wind Pressure Humidity
    00:00 +1°C° 0 mm 4 mps 737 mmHg 94%
    01:00 +1°C° 0 mm 4 mps 737 mmHg 95%
    02:00 +1°C° 0 mm 4 mps 738 mmHg 95%
    03:00 0°C° 0 mm 4 mps 737 mmHg 94%
    04:00 0°C° 0 mm 4 mps 737 mmHg 94%
    05:00 0°C° 0 mm 5 mps 737 mmHg 93%
    06:00 0°C° 0 mm 5 mps 737 mmHg 93%
    07:00 0°C° 0 mm 5 mps 738 mmHg 92%
    08:00 +1°C° 0 mm 5 mps 738 mmHg 92%
    09:00 +1°C° 0 mm 5 mps 738 mmHg 88%
    10:00 +2°C° 0 mm 5 mps 738 mmHg 85%
    11:00 +3°C° 0 mm 5 mps 738 mmHg 82%
    12:00 +3°C° 0 mm 5 mps 738 mmHg 79%
    13:00 +5°C° 0 mm 5 mps 737 mmHg 75%
    14:00 +6°C° 0 mm 5 mps 737 mmHg 71%
    15:00 +5°C° 0.1 mm 5 mps 737 mmHg 76%
    16:00 +5°C° 0.1 mm 5 mps 736 mmHg 82%
    17:00 +3°C° 0.1 mm 5 mps 736 mmHg 87%
    18:00 +3°C° 0.9 mm 6 mps 735 mmHg 88%
    19:00 +2°C° 0.9 mm 6 mps 735 mmHg 90%
    20:00 +2°C° 0.9 mm 7 mps 735 mmHg 92%
    21:00 +2°C° 0.8 mm 6 mps 734 mmHg 92%
    22:00 +3°C° 0.8 mm 6 mps 734 mmHg 92%
    23:00 +3°C° 0.8 mm 6 mps 733 mmHg 92%

    3 March, Tuesday

    Time Temperature Precipitation Wind Pressure Humidity
    00:00 +3°C° 0.5 mm 5 mps 733 mmHg 92%
    01:00 +3°C° 0.5 mm 5 mps 733 mmHg 92%
    02:00 +3°C° 0.5 mm 5 mps 732 mmHg 93%
    03:00 +3°C° 1.3 mm 5 mps 732 mmHg 93%
    04:00 +3°C° 1.3 mm 5 mps 733 mmHg 94%
    05:00 +3°C° 1.3 mm 5 mps 733 mmHg 95%
    06:00 +3°C° 0.2 mm 5 mps 733 mmHg 92%
    07:00 +2°C° 0.2 mm 6 mps 734 mmHg 89%
    08:00 +2°C° 0.2 mm 6 mps 735 mmHg 86%
    09:00 +2°C° 0 mm 6 mps 736 mmHg 82%
    10:00 +3°C° 0 mm 5 mps 737 mmHg 78%
    11:00 +3°C° 0 mm 5 mps 737 mmHg 74%
    12:00 +5°C° 0 mm 5 mps 738 mmHg 70%
    13:00 +6°C° 0 mm 5 mps 739 mmHg 65%
    14:00 +5°C° 0 mm 6 mps 739 mmHg 61%
    15:00 +6°C° 0 mm 5 mps 740 mmHg 63%
    16:00 +6°C° 0 mm 4 mps 740 mmHg 66%
    17:00 +5°C° 0 mm 3 mps 740 mmHg 68%
    18:00 +4°C° 0 mm 3 mps 741 mmHg 72%
    19:00 +4°C° 0 mm 3 mps 741 mmHg 77%
    20:00 +3°C° 0 mm 3 mps 741 mmHg 81%
    21:00 +3°C° 0 mm 3 mps 742 mmHg 82%
    22:00 +3°C° 0 mm 3 mps 742 mmHg 82%
    23:00 +2°C° 0 mm 3 mps 743 mmHg 83%
    Show more